Location: Lucerne Valley
(34.4439°N, 116.9669°E)
Time: 02:21:31
(UTC-08:00)

Vanguard 1 - Visible Passes

Search period start: 12 December 2017 00:00
Search period end: 22 December 2017 00:00
Orbit: 650 x 3833 km, 34.2° (Epoch: 10 December)

Date Brightness Start Highest point End Pass type
(mag) Time Alt. Az. Time Alt. Az. Time Alt. Az.
12 Dec 14.6 13:21:01 10° S 13:34:53 19° SE 13:47:44 10° E visible
13 Dec 14.4 13:38:56 10° S 13:56:02 27° SE 14:11:27 10° E visible
14 Dec 14.3 13:57:56 10° SSW 14:17:11 34° SE 14:34:07 10° E visible
15 Dec 14.6 12:05:22 10° SSE 12:14:03 13° SE 12:22:50 10° ESE visible
15 Dec 14.0 14:17:35 10° SSW 14:38:23 43° SE 14:56:12 10° E visible
16 Dec 14.4 12:21:13 10° S 12:35:00 20° SE 12:48:59 10° E visible
16 Dec 13.8 14:37:44 10° SW 14:59:39 51° SSE 15:17:56 10° ENE visible
17 Dec 14.2 12:39:18 10° S 12:55:56 28° SE 13:12:45 10° E visible
18 Dec 14.0 12:58:22 10° SSW 13:16:52 36° SE 13:35:30 10° E visible
19 Dec 14.3 11:06:32 10° SSE 11:14:26 13° SE 11:22:50 10° ESE visible
19 Dec 13.8 13:18:03 10° SSW 13:37:54 44° SE 13:57:41 10° ENE visible
20 Dec 14.1 11:22:25 10° SSE 11:35:06 20° SE 11:49:12 10° E visible
20 Dec 13.6 13:38:12 10° SW 13:59:03 53° SE 14:19:31 10° ENE visible
21 Dec 14.0 11:40:35 10° S 11:55:47 28° SE 12:13:07 10° E visible
21 Dec 13.4 13:58:43 10° SW 14:20:20 61° SSE 14:41:09 10° ENE visible
